Weather in Baranavichy

Belarus     53°07′56″N   26°01′03″E
temp.,
°C
wind,
m/s
gust,
m/s
humid.,
%
clouds,
%
prec.,
mm/h
press.,
hPa
HPBL,
m
23 april, fri
fri2300:00+3wsw39774 0.0 1014227
03:00+1wsw411865 0.0 1014305
06:00+1wsw6118226 0.0 1014691
09:00+3w7975100 0.0 10151025
12:00+5w797396 0.1 10151243
15:00+6w7960100 1.1 10151577
18:00+6wnw7106183 0.8 10151454
21:00+3wnw5107396 1.3 1016475
24 april, sat
sat2400:000wnw5118144 0.0 1017579
03:00−1wnw6129018 0.1 1017485
06:00−1wnw5119251 0.0 1018551
09:00+2wnw712686 0.0 10181319
12:00+5nw7946100 0.4 10182185
15:00+7w81040100 0.4 10172550
18:00+6wnw6106096 0.6 10181586
21:00+1wsw46757 0.9 101893
25 april, sun
sun2500:000wnw3478100 0.0 101860
03:000wnw4775100 0.0 1017519
06:00−3wnw49905 0.0 1017237
09:00+1wnw69715 0.0 1017911
12:00+4wnw7959100 0.4 10171671
15:00+6wnw81050100 1.0 10162127
18:00+6wnw7954100 0.3 10161667
21:00+1w48735 0.4 1017144
26 april, mon
mon2600:00−1wnw36775 0.0 1017103
03:00−2wnw49825 0.0 1017209
06:00−3w4988100 0.0 1017271
09:00+2w686774 0.0 1016993
12:00+4w7955100 0.2 10151698
15:00+6wnw81053100 0.9 10141874
18:00+5w7967100 0.8 10131417
21:00+2wnw41085100 1.6 1013319
27 april, tue
tue2700:00+1w3894100 0.1 1014219
03:000w4988100 0.1 1013317
06:00−1w4992100 0.0 1013323
09:00+2w698692 0.1 1013635
12:00+3w5793100 0.2 1014624
15:00+4wnw469197 0.3 1014595
18:00+6wnw347178 0.1 1014942
21:00+3wsw22895 0.2 101420